Time,TemperatureF,DewpointF,PressureIn,WindDirection,WindDirectionDegrees,WindSpeedMPH,WindSpeedGustMPH,Humidity,HourlyPrecipIn,Conditions,Clouds,dailyrainin,SolarRadiationWatts/m^2,SoftwareType,DateUTC
2013-02-11 00:02:00,74.0,66.0,-100.00,SE,125,8.0,15.0,75,0.00,,,0.00,0.000000,,2013-02-11 05:02:00,
2013-02-11 00:12:00,74.0,66.0,-100.00,SE,125,8.0,15.0,75,0.00,,,0.00,0.000000,,2013-02-11 05:12:00,
2013-02-11 00:22:00,74.0,66.0,-100.00,SE,125,8.0,15.0,75,0.00,,,0.00,0.000000,,2013-02-11 05:22:00,
2013-02-11 00:32:00,74.0,66.0,-100.00,SE,125,8.0,15.0,75,0.00,,,0.00,0.000000,,2013-02-11 05:32:00,
2013-02-11 01:02:00,73.0,66.0,-100.00,ESE,121,8.0,16.0,79,0.00,,,0.00,0.000000,,2013-02-11 06:02:00,
2013-02-11 01:12:00,73.0,66.0,-100.00,ESE,121,8.0,16.0,79,0.00,,,0.00,0.000000,,2013-02-11 06:12:00,
2013-02-11 01:22:00,73.0,66.0,-100.00,ESE,121,8.0,16.0,79,0.00,,,0.00,0.000000,,2013-02-11 06:22:00,
2013-02-11 01:32:00,73.0,66.0,-100.00,ESE,121,8.0,16.0,79,0.00,,,0.00,0.000000,,2013-02-11 06:32:00,
2013-02-11 01:52:00,74.0,66.0,-100.00,SE,128,7.0,18.0,75,0.00,,,0.00,0.000000,,2013-02-11 06:52:00,
2013-02-11 02:02:00,74.0,66.0,-100.00,SE,128,7.0,18.0,75,0.00,,,0.00,0.000000,,2013-02-11 07:02:00,
2013-02-11 02:12:00,74.0,66.0,-100.00,SE,128,7.0,18.0,75,0.00,,,0.00,0.000000,,2013-02-11 07:12:00,
2013-02-11 02:22:00,74.0,66.0,-100.00,SE,128,7.0,18.0,75,0.00,,,0.00,0.000000,,2013-02-11 07:22:00,
2013-02-11 02:32:00,74.0,66.0,-100.00,SE,128,7.0,18.0,75,0.00,,,0.00,0.000000,,2013-02-11 07:32:00,
2013-02-11 03:01:00,73.0,65.0,-100.00,SE,127,8.0,16.0,75,0.00,,,0.00,0.000000,,2013-02-11 08:01:00,
2013-02-11 03:11:00,73.0,65.0,-100.00,SE,127,8.0,16.0,75,0.00,,,0.00,0.000000,,2013-02-11 08:11:00,
2013-02-11 03:22:00,73.0,65.0,-100.00,SE,127,8.0,16.0,75,0.00,,,0.00,0.000000,,2013-02-11 08:22:00,
2013-02-11 03:32:00,73.0,65.0,-100.00,SE,127,8.0,16.0,75,0.00,,,0.00,0.000000,,2013-02-11 08:32:00,
2013-02-11 04:02:00,73.0,65.0,-100.00,ESE,122,6.0,13.0,77,0.00,,,0.00,0.000000,,2013-02-11 09:02:00,
2013-02-11 04:12:00,73.0,65.0,-100.00,ESE,122,6.0,13.0,77,0.00,,,0.00,0.000000,,2013-02-11 09:12:00,
2013-02-11 04:22:00,73.0,65.0,-100.00,ESE,122,6.0,13.0,77,0.00,,,0.00,0.000000,,2013-02-11 09:22:00,
2013-02-11 04:32:00,73.0,65.0,-100.00,ESE,122,6.0,13.0,77,0.00,,,0.00,0.000000,,2013-02-11 09:32:00,
2013-02-11 04:52:00,73.0,66.0,-100.00,ESE,123,6.0,15.0,80,0.00,,,0.00,0.000000,,2013-02-11 09:52:00,
2013-02-11 05:02:00,73.0,66.0,-100.00,ESE,123,6.0,15.0,80,0.00,,,0.00,0.000000,,2013-02-11 10:02:00,
2013-02-11 05:11:00,73.0,66.0,-100.00,ESE,123,6.0,15.0,80,0.00,,,0.00,0.000000,,2013-02-11 10:11:00,
2013-02-11 05:21:00,73.0,66.0,-100.00,ESE,123,6.0,15.0,80,0.00,,,0.00,0.000000,,2013-02-11 10:21:00,
2013-02-11 05:32:00,73.0,66.0,-100.00,ESE,123,6.0,15.0,80,0.00,,,0.00,0.000000,,2013-02-11 10:32:00,
2013-02-11 06:02:00,73.0,68.0,-100.00,ESE,112,5.0,13.0,84,0.00,,,0.00,0.000000,,2013-02-11 11:02:00,
2013-02-11 06:11:00,73.0,68.0,-100.00,ESE,112,5.0,13.0,84,0.00,,,0.00,0.000000,,2013-02-11 11:11:00,
2013-02-11 06:22:00,73.0,68.0,-100.00,ESE,112,5.0,13.0,84,0.00,,,0.00,0.000000,,2013-02-11 11:22:00,
2013-02-11 06:32:00,73.0,68.0,-100.00,ESE,112,5.0,13.0,84,0.00,,,0.00,0.000000,,2013-02-11 11:32:00,
2013-02-11 07:03:00,73.0,68.0,-100.00,SE,128,7.0,13.0,84,0.00,,,0.00,0.000000,,2013-02-11 12:03:00,
2013-02-11 07:12:00,73.0,68.0,-100.00,SE,128,7.0,13.0,84,0.00,,,0.00,0.000000,,2013-02-11 12:12:00,
2013-02-11 07:22:00,73.0,68.0,-100.00,SE,128,7.0,13.0,84,0.00,,,0.00,0.000000,,2013-02-11 12:22:00,
2013-02-11 07:32:00,73.0,68.0,-100.00,SE,128,7.0,13.0,84,0.00,,,0.00,0.000000,,2013-02-11 12:32:00,
2013-02-11 08:02:00,72.0,69.0,-100.00,SE,143,4.0,11.0,89,0.01,,,-99.99,5.000000,,2013-02-11 13:02:00,
2013-02-11 08:12:00,72.0,69.0,-100.00,SE,143,4.0,11.0,89,0.01,,,-99.99,5.000000,,2013-02-11 13:12:00,
2013-02-11 08:22:00,72.0,69.0,-100.00,SE,143,4.0,11.0,89,0.01,,,-99.99,5.000000,,2013-02-11 13:22:00,
2013-02-11 08:33:00,72.0,69.0,-100.00,SE,143,4.0,11.0,89,0.01,,,-99.99,5.000000,,2013-02-11 13:33:00,
2013-02-11 09:02:00,75.0,68.0,-100.00,SE,137,7.0,12.0,79,0.00,,,-99.99,137.000000,,2013-02-11 14:02:00,
2013-02-11 09:12:00,75.0,68.0,-100.00,SE,137,7.0,12.0,79,0.00,,,-99.99,137.000000,,2013-02-11 14:12:00,
2013-02-11 09:22:00,75.0,68.0,-100.00,SE,137,7.0,12.0,79,0.00,,,-99.99,137.000000,,2013-02-11 14:22:00,
2013-02-11 09:33:00,75.0,68.0,-100.00,SE,137,7.0,12.0,79,0.00,,,-99.99,137.000000,,2013-02-11 14:33:00,
2013-02-11 10:02:00,79.0,69.0,-100.00,SE,133,8.0,17.0,72,0.00,,,0.01,337.000000,,2013-02-11 15:02:00,
2013-02-11 10:11:00,79.0,69.0,-100.00,SE,133,8.0,17.0,72,0.00,,,0.01,337.000000,,2013-02-11 15:11:00,
2013-02-11 10:22:00,79.0,69.0,-100.00,SE,133,8.0,17.0,72,0.00,,,0.01,337.000000,,2013-02-11 15:22:00,
2013-02-11 10:32:00,79.0,69.0,-100.00,SE,133,8.0,17.0,72,0.00,,,0.01,337.000000,,2013-02-11 15:32:00,
2013-02-11 11:02:00,81.0,67.0,-100.00,SE,142,9.0,19.0,63,0.00,,,0.01,522.000000,,2013-02-11 16:02:00,
2013-02-11 11:12:00,81.0,67.0,-100.00,SE,142,9.0,19.0,63,0.00,,,0.01,522.000000,,2013-02-11 16:12:00,
2013-02-11 11:22:00,81.0,67.0,-100.00,SE,142,9.0,19.0,63,0.00,,,0.01,522.000000,,2013-02-11 16:22:00,
2013-02-11 11:32:00,81.0,67.0,-100.00,SE,142,9.0,19.0,63,0.00,,,0.01,522.000000,,2013-02-11 16:32:00,
2013-02-11 12:02:00,81.0,67.0,-100.00,SE,140,9.0,16.0,63,0.00,,,0.01,517.000000,,2013-02-11 17:02:00,
2013-02-11 12:12:00,81.0,67.0,-100.00,SE,140,9.0,16.0,63,0.00,,,0.01,517.000000,,2013-02-11 17:12:00,
2013-02-11 12:22:00,81.0,67.0,-100.00,SE,140,9.0,16.0,63,0.00,,,0.01,517.000000,,2013-02-11 17:22:00,
2013-02-11 12:32:00,81.0,67.0,-100.00,SE,140,9.0,16.0,63,0.00,,,0.01,517.000000,,2013-02-11 17:32:00,
2013-02-11 13:02:00,83.0,67.0,-100.00,SE,146,9.0,17.0,59,0.00,,,0.01,706.000000,,2013-02-11 18:02:00,
2013-02-11 13:11:00,83.0,67.0,-100.00,SE,146,9.0,17.0,59,0.00,,,0.01,706.000000,,2013-02-11 18:11:00,
2013-02-11 13:22:00,83.0,67.0,-100.00,SE,146,9.0,17.0,59,0.00,,,0.01,706.000000,,2013-02-11 18:22:00,
2013-02-11 13:32:00,83.0,67.0,-100.00,SE,146,9.0,17.0,59,0.00,,,0.01,706.000000,,2013-02-11 18:32:00,
2013-02-11 14:02:00,82.0,67.0,-100.00,ESE,118,8.0,17.0,61,0.00,,,0.01,732.000000,,2013-02-11 19:02:00,
2013-02-11 14:12:00,82.0,67.0,-100.00,ESE,118,8.0,17.0,61,0.00,,,0.01,732.000000,,2013-02-11 19:12:00,
2013-02-11 14:22:00,82.0,67.0,-100.00,ESE,118,8.0,17.0,61,0.00,,,0.01,732.000000,,2013-02-11 19:22:00,
2013-02-11 14:32:00,82.0,67.0,-100.00,ESE,118,8.0,17.0,61,0.00,,,0.01,732.000000,,2013-02-11 19:32:00,
2013-02-11 15:02:00,83.0,68.0,-100.00,ESE,105,7.0,17.0,61,0.00,,,0.01,753.000000,,2013-02-11 20:02:00,
2013-02-11 15:12:00,83.0,68.0,-100.00,ESE,105,7.0,17.0,61,0.00,,,0.01,753.000000,,2013-02-11 20:12:00,
2013-02-11 15:22:00,83.0,68.0,-100.00,ESE,105,7.0,17.0,61,0.00,,,0.01,753.000000,,2013-02-11 20:22:00,
2013-02-11 15:32:00,83.0,68.0,-100.00,ESE,105,7.0,17.0,61,0.00,,,0.01,753.000000,,2013-02-11 20:32:00,
2013-02-11 16:02:00,81.0,67.0,-100.00,ESE,121,9.0,15.0,63,0.00,,,0.01,605.000000,,2013-02-11 21:02:00,
2013-02-11 16:12:00,81.0,67.0,-100.00,ESE,121,9.0,15.0,63,0.00,,,0.01,605.000000,,2013-02-11 21:12:00,
2013-02-11 16:22:00,81.0,67.0,-100.00,ESE,121,9.0,15.0,63,0.00,,,0.01,605.000000,,2013-02-11 21:22:00,
2013-02-11 16:32:00,81.0,67.0,-100.00,ESE,121,9.0,15.0,63,0.00,,,0.01,605.000000,,2013-02-11 21:32:00,
2013-02-11 17:02:00,79.0,68.0,-100.00,ESE,119,7.0,17.0,69,0.00,,,0.01,340.000000,,2013-02-11 22:02:00,
2013-02-11 17:12:00,79.0,68.0,-100.00,ESE,119,7.0,17.0,69,0.00,,,0.01,340.000000,,2013-02-11 22:12:00,
2013-02-11 17:22:00,79.0,68.0,-100.00,ESE,119,7.0,17.0,69,0.00,,,0.01,340.000000,,2013-02-11 22:22:00,
2013-02-11 17:32:00,79.0,68.0,-100.00,ESE,119,7.0,17.0,69,0.00,,,0.01,340.000000,,2013-02-11 22:32:00,
2013-02-11 18:02:00,77.0,68.0,-100.00,ESE,117,6.0,16.0,75,0.00,,,0.01,171.000000,,2013-02-11 23:02:00,
2013-02-11 18:12:00,77.0,68.0,-100.00,ESE,117,6.0,16.0,75,0.00,,,0.01,171.000000,,2013-02-11 23:12:00,
2013-02-11 18:22:00,77.0,68.0,-100.00,ESE,117,6.0,16.0,75,0.00,,,0.01,171.000000,,2013-02-11 23:22:00,
2013-02-11 18:32:00,77.0,68.0,-100.00,ESE,117,6.0,16.0,75,0.00,,,0.01,171.000000,,2013-02-11 23:32:00,
2013-02-11 18:52:00,75.0,68.0,-100.00,SE,126,6.0,14.0,80,0.00,,,-99.99,27.000000,,2013-02-11 23:52:00,
2013-02-11 19:02:00,75.0,68.0,-100.00,SE,126,6.0,14.0,80,0.00,,,-99.99,27.000000,,2013-02-12 00:02:00,
2013-02-11 19:12:00,75.0,68.0,-100.00,SE,126,6.0,14.0,80,0.00,,,-99.99,27.000000,,2013-02-12 00:12:00,
2013-02-11 19:22:00,75.0,68.0,-100.00,SE,126,6.0,14.0,80,0.00,,,-99.99,27.000000,,2013-02-12 00:22:00,
2013-02-11 19:32:00,75.0,68.0,-100.00,SE,126,6.0,14.0,80,0.00,,,-99.99,27.000000,,2013-02-12 00:32:00,
2013-02-11 20:02:00,74.0,68.0,-100.00,ESE,118,6.0,12.0,81,0.00,,,0.01,0.000000,,2013-02-12 01:02:00,
2013-02-11 20:12:00,74.0,68.0,-100.00,ESE,118,6.0,12.0,81,0.00,,,0.01,0.000000,,2013-02-12 01:12:00,
2013-02-11 20:22:00,74.0,68.0,-100.00,ESE,118,6.0,12.0,81,0.00,,,0.01,0.000000,,2013-02-12 01:22:00,
2013-02-11 20:32:00,74.0,68.0,-100.00,ESE,118,6.0,12.0,81,0.00,,,0.01,0.000000,,2013-02-12 01:32:00,
2013-02-11 21:02:00,74.0,68.0,-100.00,SE,131,6.0,15.0,81,0.00,,,0.01,0.000000,,2013-02-12 02:02:00,
2013-02-11 21:12:00,74.0,68.0,-100.00,SE,131,6.0,15.0,81,0.00,,,0.01,0.000000,,2013-02-12 02:12:00,
2013-02-11 21:22:00,74.0,68.0,-100.00,SE,131,6.0,15.0,81,0.00,,,0.01,0.000000,,2013-02-12 02:22:00,
2013-02-11 21:32:00,74.0,68.0,-100.00,SE,131,6.0,15.0,81,0.00,,,0.01,0.000000,,2013-02-12 02:32:00,
2013-02-11 22:02:00,74.0,68.0,-100.00,SE,128,6.0,14.0,82,0.00,,,0.01,0.000000,,2013-02-12 03:02:00,
2013-02-11 22:11:00,74.0,68.0,-100.00,SE,128,6.0,14.0,82,0.00,,,0.01,0.000000,,2013-02-12 03:11:00,
2013-02-11 22:21:00,74.0,68.0,-100.00,SE,128,6.0,14.0,82,0.00,,,0.01,0.000000,,2013-02-12 03:21:00,
2013-02-11 22:32:00,74.0,68.0,-100.00,SE,128,6.0,14.0,82,0.00,,,0.01,0.000000,,2013-02-12 03:32:00,
2013-02-11 23:01:00,74.0,68.0,-100.00,SE,133,6.0,12.0,83,0.00,,,0.01,0.000000,,2013-02-12 04:01:00,
2013-02-11 23:11:00,74.0,68.0,-100.00,SE,133,6.0,12.0,83,0.00,,,0.01,0.000000,,2013-02-12 04:11:00,
2013-02-11 23:21:00,74.0,68.0,-100.00,SE,133,6.0,12.0,83,0.00,,,0.01,0.000000,,2013-02-12 04:21:00,
2013-02-11 23:32:00,74.0,68.0,-100.00,SE,133,6.0,12.0,83,0.00,,,0.01,0.000000,,2013-02-12 04:32:00,